OPS 5712 (P/L 160)

Last updated on Fri Dec 29 2023 00:03:35 GMT+0000 (Coordinated Universal Time)

1 02826U 67053A 23362.12620445 .00006713 00000+0 15227-2 0 9994 2 02826 69.9269 53.3664 0009523 284.3635 75.6444 14.56418557934381
UTC large
Height (km)
Speed (km/s)
/
Latitude / Longitude
Inclination (degrees)
Orbital Period (minutes)
Azimuth
Elevation
Range (km)
Doppler Factor

Next 0 passes for location: London (51.5072 / 0.1276)

Sorry there are no passes over London.
OPS 5712 (P/L 160)